Weather Service Report


892 
ASUS44 KSJT 231010
RWRSJT
WEST CENTRAL TEXAS REGIONAL WEATHER ROUNDUP
NATIONAL WEATHER SERVICE SAN ANGELO TX
500 AM CDT THU OCT 23 2014

NOTE: "FAIR" INDICATES FEW OR NO CLOUDS BELOW 12,000 FEET WITH NO
SIGNIFICANT WEATHER AND/OR OBSTRUCTIONS TO VISIBILITY.

TXZ049-054-064>066-071>073-076>078-098-099-113-114-127-128-139-140-
154-155-168>170-231100
...LOCATIONS ACROSS WEST CENTRAL TEXAS...
  
CITY           SKY/WX    TMP DP  RH WIND       PRES   REMARKS
SAN ANGELO     PTCLDY    56  54  93 S5        30.12S                  
ABILENE        CLOUDY    63  56  78 SE3       30.12S                  
DYESS AFB      CLOUDY    61  56  83 CALM      30.11S                  
JUNCTION       PTCLDY    59  58  96 NW3       30.12S FOG              
SWEETWATER     CLOUDY    62  56  82 S5        30.16S                  
BROWNWOOD      CLOUDY    64  59  82 CALM      30.12S                  
COLEMAN        CLOUDY    62  59  91 SW3       30.12S                  
SONORA         CLEAR     55  55 100 CALM      30.16F FOG              
OZONA          FAIR      54  52  94 CALM      30.15F FOG              
BRADY          MOCLDY    63  54  72 CALM      30.12S                  
$$

TEXAS PANHANDLE/OKLAHOMA PANHANDLE
  
CITY           SKY/WX    TMP DP  RH WIND       PRES   REMARKS
AMARILLO       MOCLDY    59  58  96 SW14      30.10F                  
BORGER         NOT AVBL                                               
CANADIAN       PTCLDY    61  60  96 CALM      30.07S                  
DALHART        FOG       52  51  97 SW6       30.10F VSB<1/4          
DUMAS            N/A     54  53  96 S8        30.09F FOG              
GUYMON         NOT AVBL                                               
HEREFORD       CLOUDY    62  59  91 S8        30.12F                  
PAMPA          SUNNY     57  56  97 S7        30.10F FOG              
PERRYTON       CLEAR     58  56  94 S5        30.06F                  
$$

SOUTHERN PANHANDLE/SOUTH PLAINS/ROLLING PLAINS
  
CITY           SKY/WX    TMP DP  RH WIND       PRES   REMARKS
LUBBOCK        CLEAR     53  51  93 S6        30.12F                  
SNYDER         CLEAR     57  54  89 CALM      30.14R                  
CHILDRESS      FOG       60  59  96 SW5       30.11S VSB 3/4          
SEMINOLE       FOG       55  55  98 CALM      30.13F VSB 1/4          
$$

PERMIAN BASIN
  
CITY           SKY/WX    TMP DP  RH WIND       PRES   REMARKS
MIDLAND        CLEAR     54  52  93 SE6       30.11F                  
ODESSA         CLEAR     56  54  93 S7        30.12F                  
WINK           CLEAR     56  55  97 NE3       30.09F                  
$$

FAR WEST/SOUTHWEST MOUNTAINS/TRANS PECOS
  
CITY           SKY/WX    TMP DP  RH WIND       PRES   REMARKS
ALPINE         CLOUDY    59  57  94 SW8       30.24S                  
DRYDEN           N/A     62  61  96 SW6       30.10F                  
EL PASO        CLEAR     58  53  84 CALM      30.14S                  
FORT STOCKTON  CLEAR     57  56  96 S7        30.10F                  
GUADALUPE PASS CLEAR     55  54  96 SW12      30.22S FOG              
MARFA          CLOUDY    57  57 100 S3        30.22F                  
PECOS          SUNNY     57  55  95 CALM      30.09F FOG              
$$

DALLAS/FORT WORTH METROPLEX
  
CITY           SKY/WX    TMP DP  RH WIND       PRES   REMARKS
DFW AIRPORT    CLOUDY    65  54  67 SE6       30.11F                  
FTW MEACHAM    CLOUDY    68  54  60 SE9       30.10F                  
DAL-EXECUTIVE  CLOUDY    65  55  70 SE9       30.11S                  
GRAND PRAIRIE  CLOUDY    66  55  66 SE3       30.12F                  
ADDISON        CLOUDY    66  55  67 SE9       30.13F                  
MESQUITE       CLOUDY    62  53  71 CALM      30.12S                  
LANCASTER      CLOUDY    63  54  73 CALM      30.13S                  
$$

NORTH CENTRAL TEXAS
  
CITY           SKY/WX    TMP DP  RH WIND       PRES   REMARKS
SHRMAN/DENISON CLOUDY    60  58  90 SE7       30.14S                  
GAINESVILLE    CLOUDY    61  56  82 SE7       30.14S                  
BRIDGEPORT     PTSUNNY   65  58  77 CALM      30.12S                  
DENTON         CLOUDY    64  57  78 SE7       30.11F                  
WAXAHACHIE     CLOUDY    62  56  82 CALM      30.13R                  
GRANBURY       CLOUDY    68  57  68 SE6       30.11F                  
$$

WESTERN NORTH TEXAS
  
CITY           SKY/WX    TMP DP  RH WIND       PRES   REMARKS
WICHITA FALLS  CLOUDY    64  60  87 SE6       30.08F                  
VERNON         MOSUNNY   61  59  94 CALM      30.10S                  
BRECKENRIDGE   CLOUDY    67  58  72 S7        30.10S                  
COMANCHE       CLOUDY    64  60  88 CALM      30.12S                  
$$

CENTRAL AND SOUTH CENTRAL TEXAS
  
CITY           SKY/WX    TMP DP  RH WIND       PRES   REMARKS
AUSTIN/BERGSTM CLOUDY    64  63  96 CALM      30.08F                  
WACO           CLOUDY    65  58  78 CALM      30.11R                  
HILLSBORO      CLOUDY    64  55  74 E8        30.12R                  
TEMPLE         CLOUDY    64  54  68 E6        30.10S                  
KILLEEN-GRAY   CLOUDY    66  57  72 SE6       30.10R                  
FORT HOOD      CLOUDY    67  60  78 CALM      30.11R                  
GEORGETOWN     CLOUDY    66  59  77 CALM      30.10S                  
LAGO VISTA     FAIR      66  59  76 CALM      30.11F                  
SAN MARCOS     CLOUDY    64  59  82 CALM      30.11S                  
NEW BRAUNFELS  CLOUDY    66  32  28 CALM      30.07F                  
RANDOLPH AFB   CLOUDY    66  63  88 N1        30.10S                  
SAN ANTONIO    DRIZZLE   68  65  90 NE3       30.10F                  
STINSON        CLOUDY    69  63  81 N3        30.09R                  
PLEASANTON     NOT AVBL                                               
LA GRANGE      CLOUDY    66  64  93 CALM      30.06F                  
GIDDINGS       CLOUDY    64  58  80 CALM      30.11F                  
$$

EAST TEXAS
  
CITY           SKY/WX    TMP DP  RH WIND       PRES   REMARKS
PARIS          CLOUDY    57  48  72 E3        30.16S                  
CLARKSVILLE    NOT AVBL                                               
TYLER          CLOUDY    61  52  72 E5        30.12S                  
LONGVIEW       CLOUDY    58  52  80 E3        30.12S                  
PALESTINE      CLOUDY    62  54  74 CALM      30.13R                  
NACOGDOCHES    CLOUDY    57  50  77 CALM      30.12S                  
$$

TEXAS HILL COUNTRY AND EDWARDS PLATEAU
  
CITY           SKY/WX    TMP DP  RH WIND       PRES   REMARKS
LLANO          NOT AVBL                                               
HORSESHOE BAY  FAIR      66  58  76 CALM      30.10S                  
KERRVILLE      MOCLDY    62  60  93 E5        30.11F                  
FREDERICKSBRG  CLOUDY    64  60  87 S3        30.11S                  
ROCKSPRINGS    MOSUNNY   59  57  94 CALM      30.14F FOG              
HONDO          CLOUDY    64  32  30 CALM      30.12F                  
UVALDE         PTSUNNY   68  67  96 NE5       30.09F                  
DEL RIO        CLOUDY    64  63  96 CALM      30.07F FOG              
$$

SOUTHEAST TEXAS
  
CITY           SKY/WX    TMP DP  RH WIND       PRES   REMARKS
COLLEGE STN    LGT RAIN  65  56  72 E6        30.08F                  
CALDWELL       CLOUDY    63  59  88 CALM      30.12R                  
CROCKETT       CLOUDY    64  55  72 CALM      30.14R                  
BRENHAM        CLOUDY    65  57  75 E7        30.07F                  
HUNTSVILLE     CLOUDY    61  56  83 CALM      30.10R                  
CONROE         CLOUDY    61  53  75 VRB3      30.10S                  
HOUSTON BUSH   MOCLDY    60  56  86 NE6       30.08F                  
HOUSTON HOBBY  PTCLDY    62  57  83 NE3       30.06F                  
PERLAND        CLEAR     63  57  81 NE6       30.08S                  
WHARTON        MOSUNNY   59  58  94 CALM      30.07S                  
$$

THE UPPER TEXAS COAST
  
CITY           SKY/WX    TMP DP  RH WIND       PRES   REMARKS
ORANGE         MOSUNNY   57  53  85 N3        30.10S                  
PORT ARTHUR    PTCLDY    59  52  77 NE7       30.07S                  
GALVESTON      CLEAR     67  62  84 NE10      30.06S                  
ANGLETON       PTCLDY    58  58 100 N7        30.06S                  
BAY CITY         N/A     63  61  96 NE6       30.05F                  
$$

TEXAS COASTAL BEND, RIO GRANDE PLAINS DEEP SOUTH TEXAS
  
CITY           SKY/WX    TMP DP  RH WIND       PRES   REMARKS
VICTORIA       PTCLDY    61  58  90 E3        30.05F FOG              
BEEVILLE       FAIR      64  62  94 N3        30.06S                  
ROCKPORT       CLEAR     68  63  84 N6        30.03F                  
PORT ARANSAS   MOSUNNY   73  62  70 NE6       30.03S                  
PORT LAVACA    MOSUNNY   64  61  89 N6        30.05S                  
CORPUS CHRISTI PTCLDY    68  63  84 N7        30.03F                  
KINGSVILLE NAS CLEAR     64  64 100 N6        30.03F                  
COTULLA        CLOUDY    72  64  76 NE3       30.07F                  
LAREDO         CLOUDY    71  66  84 E6        30.08F                  
BROWNSVILLE    CLEAR     69  67  93 NW5       29.99F                  
PORT ISABEL    PTCLDY    73  66  78 NE3       29.99F                  
HEBBRONVILLE   CLOUDY    67  64  87 CALM      30.06S                  
MCALLEN        MOCLDY    70  67  90 N8        30.02F                  
WESLACO        CLEAR     66  64  91 NW3       30.01S FOG              
FALFURRIAS     SUNNY     64  63  94 N5        30.03S                  
EDINBURG       MOSUNNY   68  65  90 CALM      30.02S                  
$$

Return to Home page


Western Regional Climate Center, wrcc@dri.edu